Location: Poughquag
(41.6090°N, 73.6820°W)
Time: 02:25:13
(UTC-04:00)

Transit 4A - Pass Details

Date: 07 June 2020
Orbit: 866 x 978 km, 66.8° (Epoch: 06 July)

Event Time Altitude Azimuth Distance (km) Brightness Sun altitude
Rises 00:48:30 0° 210° (SSW) 3,435 - -25.6°
Reaches altitude 10° 00:50:57 10° 211° (SSW) 2,504 - -25.6°
Exits shadow 00:55:45 63° 221° (SW) 971 7.7 -25.6°
Maximum altitude 00:56:44 84° 300° (WNW) 886 7.7 -25.6°
Drops below altitude 10° 01:02:41 10° 29° (NNE) 2,565 11.0 -25.6°
Sets 01:05:13 0° 30° (NNE) 3,524 11.9 -25.5°
